GFSFLT1_sfc_wetblb_336.txt.gz
Wetbulb
69.06 69.36 70.24 70.65 71.45 72.17 72.70 73.28 74.01 74.66 75.37 76.39 76.79 77.24 77.59 78.29 78.39 76.80 76.14 76.83 76.32 75.26 75.96 76.66 78.91 79.55 79.12 78.81 78.12 77.27 76.62 75.24 74.39
68.27 69.25 69.79 70.46 71.56 72.19 72.79 73.57 74.33 74.99 75.33 76.52 76.74 76.47 77.50 77.69 78.05 77.51 76.67 77.80 78.02 76.53 77.66 77.12 78.62 79.34 79.42 79.03 78.41 78.01 77.08 74.84 74.44
68.08 69.47 70.16 70.62 71.38 72.26 73.25 73.78 74.46 75.29 75.82 76.20 76.36 76.22 76.91 77.16 77.53 77.96 77.98 77.85 78.10 78.14 77.74 78.44 78.65 79.45 79.17 79.03 78.65 78.33 77.47 75.78 75.29
67.14 67.85 69.82 70.70 71.75 72.40 73.41 74.25 74.41 74.81 75.31 75.67 72.97 71.63 73.51 75.28 76.59 77.14 77.69 77.04 77.66 78.31 78.75 78.95 79.08 79.69 79.51 78.92 78.44 78.48 77.58 76.91 75.88
69.18 70.12 69.62 70.33 71.38 72.26 72.74 73.73 74.25 74.79 75.17 73.77 71.29 70.23 71.48 71.15 74.23 77.11 76.14 76.76 76.95 77.83 78.38 79.12 79.08 79.33 79.60 79.12 79.01 78.79 77.64 76.78 75.81
70.95 70.51 70.53 69.98 71.77 71.94 72.59 73.43 74.74 74.91 75.09 73.80 72.90 73.64 71.50 71.79 73.96 75.32 76.14 76.69 77.34 77.86 78.74 78.93 78.77 78.83 79.10 79.05 78.95 78.73 78.09 77.56 77.09
71.46 71.01 70.77 71.12 71.45 72.74 73.62 74.31 74.87 75.07 75.22 74.84 74.64 74.54 73.90 74.14 74.56 75.79 76.61 77.50 77.72 77.82 78.91 79.02 79.32 79.18 78.77 78.93 79.13 78.81 78.33 77.96 77.34
71.03 71.01 71.14 71.74 72.25 73.64 74.83 74.88 75.28 75.49 75.55 76.10 76.29 75.97 76.03 74.88 77.00 77.74 77.97 77.90 78.12 78.54 78.81 78.84 79.29 78.99 78.83 78.78 78.41 78.17 78.45 78.10 77.31
70.97 71.26 71.96 72.74 73.27 73.77 74.05 74.92 75.44 75.94 76.43 76.60 77.00 76.16 76.18 77.23 77.70 77.84 77.97 78.57 78.99 79.43 78.87 79.33 79.41 79.07 78.99 78.68 77.91 72.28 71.38 76.01 77.03
71.51 72.65 73.42 73.72 74.05 74.48 74.94 75.80 77.15 77.36 78.15 78.66 78.09 78.11 78.35 78.81 79.52 79.86 80.14 80.29 80.11 79.88 79.36 80.14 79.27 79.46 79.50 78.96 79.12 69.29 69.47 71.47 75.78
72.12 73.09 73.75 73.27 72.81 73.11 73.78 73.78 76.24 78.23 78.58 79.12 79.38 79.20 79.32 79.65 79.76 79.71 79.86 79.60 79.58 79.72 80.08 79.36 79.78 79.66 79.84 79.84 79.49 67.43 67.38 69.90 68.33
73.28 73.97 73.97 73.32 73.32 71.79 73.34 75.09 76.54 76.77 75.96 77.02 76.79 76.90 77.71 78.49 78.42 77.66 77.43 77.14 78.28 78.92 78.86 79.07 78.53 79.21 79.50 78.95 79.79 65.12 65.30 68.51 68.82
73.81 73.92 73.52 73.33 71.54 71.49 73.14 74.48 75.11 74.83 74.80 75.03 74.84 75.66 75.69 76.37 75.74 74.84 74.59 75.83 76.89 77.99 78.30 77.66 77.72 78.04 78.72 74.90 78.76 63.34 63.56 66.73 70.40
74.35 73.88 73.80 74.00 71.14 70.79 73.51 75.31 75.37 74.26 74.05 73.63 74.77 74.57 75.73 75.65 74.37 74.37 75.18 76.41 76.97 76.95 76.90 77.36 77.45 77.22 77.66 77.91 76.76 74.92 61.61 62.47 70.08
73.69 73.72 73.72 74.12 73.06 71.78 73.93 75.78 75.79 74.64 74.82 76.21 76.56 75.77 74.58 74.17 74.50 74.28 73.84 76.04 76.87 76.88 76.89 76.16 76.16 76.30 75.50 74.88 76.74 67.63 60.34 59.88 63.03
72.60 73.50 73.58 74.53 75.00 74.32 75.10 76.50 76.63 74.55 76.74 78.80 77.44 75.91 73.55 73.11 74.42 74.67 75.62 75.72 75.72 74.18 76.53 73.95 74.12 71.94 71.74 71.91 73.34 75.36 61.57 58.97 59.66
72.25 72.29 72.61 73.80 75.09 75.16 75.22 77.32 77.57 77.33 77.39 77.16 74.87 72.86 73.21 73.61 74.19 73.72 74.68 73.31 71.97 70.99 70.28 70.26 70.19 70.66 70.70 71.57 72.32 73.82 74.03 68.82 63.22
72.35 72.77 74.09 74.36 74.96 74.70 74.52 75.37 75.86 74.50 73.94 73.62 73.43 73.45 72.79 73.13 72.39 72.46 72.57 74.13 71.95 71.07 73.97 70.01 71.84 71.78 71.60 71.32 71.03 71.70 67.59 68.44 71.71
72.17 71.35 72.10 72.83 73.43 73.63 72.74 73.69 73.06 73.67 74.29 74.75 73.80 72.41 71.32 70.59 70.77 70.84 70.65 70.52 70.77 61.17 59.92 58.37 56.50 54.69 62.60 72.23 63.19 55.23 53.78 52.51 52.69
66.96 71.57 71.77 71.83 71.69 72.15 73.09 73.40 73.10 73.58 73.82 73.73 73.09 71.89 71.78 70.86 68.53 70.29 70.12 70.00 69.62 68.94 67.00 55.35 52.51 51.24 51.42 50.52 56.42 50.34 48.34 47.07 48.70

GFSFLT1_sfc_wetblb_339.txt.gz
Wetbulb
68.94 69.57 70.06 70.78 72.00 72.27 72.24 72.38 73.38 74.60 76.17 77.81 78.22 78.35 78.70 80.55 80.06 77.97 77.32 77.53 76.32 75.64 74.99 75.40 81.01 80.11 79.58 79.18 79.14 78.58 77.99 75.93 74.76
67.58 68.86 69.15 70.42 71.79 72.16 72.67 72.87 73.84 75.11 76.16 77.83 78.18 77.77 79.88 80.08 80.04 79.50 78.53 79.20 78.33 76.67 77.96 76.83 79.06 79.45 79.57 79.30 79.37 78.99 78.53 76.06 75.37
67.30 68.40 69.34 70.14 71.01 72.02 73.04 73.53 74.43 75.73 76.58 77.43 77.94 77.54 77.90 78.13 78.80 79.69 79.02 78.56 79.06 79.02 78.48 78.70 79.01 79.73 79.54 79.62 79.50 79.23 78.99 77.53 76.78
67.37 68.27 69.17 69.81 70.80 72.60 73.32 74.26 74.76 75.25 76.23 77.09 77.14 77.55 78.22 79.36 77.79 78.01 78.92 77.99 78.90 79.44 79.34 80.02 79.67 80.51 80.23 79.69 79.32 79.25 78.77 78.53 77.54
68.26 68.85 69.55 70.28 71.02 72.35 73.39 74.12 74.82 75.41 76.19 76.26 77.56 77.35 76.22 76.72 77.49 78.90 77.51 77.93 77.94 78.59 79.57 80.34 80.97 81.12 80.69 80.60 80.13 80.12 79.26 77.74 77.35
70.59 70.65 70.10 70.44 71.49 72.75 73.50 74.40 77.63 77.54 77.08 76.59 77.31 75.48 73.19 73.17 74.83 75.35 75.97 77.37 77.97 78.54 80.73 81.08 80.24 81.26 81.04 80.78 80.15 79.70 79.05 78.83 78.27
70.84 71.32 70.96 70.50 71.76 72.73 74.11 75.95 78.39 78.56 77.20 77.35 76.51 75.52 74.60 74.38 74.06 75.37 76.54 78.21 78.83 78.81 80.51 80.54 81.84 81.79 81.80 80.31 80.23 80.44 79.46 79.05 78.40
70.50 70.66 70.34 71.65 71.84 73.24 74.66 75.60 76.75 77.23 77.59 77.78 78.77 77.36 76.57 76.32 77.17 78.09 78.32 78.78 79.29 79.94 80.54 80.12 81.09 81.23 80.16 80.05 79.35 78.61 80.35 80.21 79.85
70.37 70.79 71.20 72.01 73.75 74.79 75.38 76.01 76.38 76.95 77.46 77.83 78.34 77.51 77.14 78.89 78.46 78.81 79.27 79.84 79.73 80.02 79.85 80.13 80.25 80.19 80.61 80.33 78.75 73.11 71.79 76.93 79.43
70.68 71.33 72.62 73.98 74.83 75.24 75.90 76.35 77.32 77.27 78.05 78.79 78.69 78.42 78.41 79.01 79.46 79.79 80.61 81.17 81.10 80.60 80.45 80.63 81.09 81.26 81.29 80.50 81.09 71.89 69.19 70.94 67.92
71.95 73.29 73.94 74.74 75.16 75.54 75.76 75.28 76.27 78.45 78.69 79.08 79.60 79.63 79.42 79.67 79.49 78.91 79.30 78.66 78.76 79.46 79.82 80.33 80.53 80.37 80.76 80.09 80.23 70.19 67.17 69.27 67.38
73.86 74.89 75.01 74.31 73.93 72.59 74.87 75.11 76.79 76.85 76.24 78.05 76.81 76.91 78.16 77.99 77.45 76.39 76.10 75.55 76.63 77.93 78.22 78.95 78.78 79.17 79.51 79.86 80.74 68.63 65.54 68.41 70.13
74.43 74.23 73.65 72.66 72.29 72.82 74.01 74.92 75.35 75.53 75.46 76.64 77.84 78.32 77.94 78.18 77.24 75.79 74.42 75.02 76.16 77.50 77.44 77.75 75.30 76.67 78.16 74.52 78.97 63.53 63.81 68.30 72.61
74.83 73.69 73.05 71.94 71.30 71.56 73.25 74.18 74.43 74.21 74.46 74.22 75.22 75.01 76.29 77.71 75.98 75.73 75.75 76.48 77.22 77.34 77.93 78.30 77.85 77.50 78.70 79.42 77.72 75.64 61.89 62.34 74.27
73.58 73.31 72.57 71.08 71.27 72.57 73.84 75.13 74.96 74.43 74.80 76.44 76.98 76.24 75.53 75.29 75.50 74.08 74.20 76.34 77.91 78.49 78.75 78.59 78.14 78.31 76.92 74.66 78.82 68.70 60.89 60.66 62.65
73.96 73.60 73.11 71.75 71.49 72.73 74.11 75.50 76.01 74.82 77.00 77.87 77.28 76.17 74.83 74.15 74.86 75.09 76.12 76.72 77.55 75.04 77.28 74.36 72.86 68.62 69.06 70.28 71.64 75.35 61.74 59.51 60.07
74.25 74.07 73.72 73.98 73.58 72.37 73.63 76.63 77.39 77.39 78.17 79.60 78.42 77.03 74.80 74.92 75.08 75.92 75.78 74.16 73.02 72.03 71.44 70.50 69.72 68.46 68.53 69.65 70.69 71.32 74.36 72.23 66.93
73.19 73.47 74.15 74.28 74.69 75.05 76.59 77.41 77.80 77.57 77.92 77.14 75.30 74.35 73.91 73.94 73.41 74.40 75.25 74.53 72.69 71.45 73.86 69.62 70.12 70.42 70.66 69.99 70.00 70.47 64.54 66.80 74.41
73.83 74.53 75.32 75.12 75.70 76.21 76.02 76.16 75.74 75.40 75.50 75.28 74.77 73.51 72.88 71.97 71.72 71.72 71.09 70.47 70.53 62.97 58.79 58.43 57.32 55.95 63.59 71.42 63.44 57.41 52.86 50.87 52.14
69.31 73.49 73.82 74.07 74.35 74.20 74.51 74.68 74.73 75.15 75.12 74.93 73.86 72.84 72.51 71.28 68.74 69.71 69.48 69.06 68.79 67.69 66.53 55.67 53.52 51.05 51.60 50.85 56.87 52.14 50.14 49.78 49.06

GFSFLT1_sfc_wetblb_342.txt.gz
Wetbulb
69.10 69.02 69.71 70.00 71.19 72.18 72.55 72.59 73.52 75.17 77.39 77.90 78.72 78.61 78.91 79.60 80.12 79.02 78.61 79.29 77.29 78.24 76.41 78.46 79.34 79.22 78.86 79.89 80.00 79.97 79.55 78.44 76.47
67.21 68.75 69.66 69.46 70.42 70.89 72.18 72.58 73.98 75.83 77.24 78.20 78.62 78.56 78.80 79.44 79.60 79.27 78.03 79.42 79.21 77.86 79.45 77.06 76.92 78.62 79.19 80.65 80.29 79.83 79.54 77.05 76.64
65.95 67.71 69.10 69.74 71.07 71.58 72.21 71.97 73.53 74.81 77.55 77.79 78.58 78.26 78.75 78.93 79.58 80.03 80.11 81.05 79.70 80.92 81.37 80.58 79.59 79.92 80.80 79.74 80.42 80.03 79.59 78.16 77.39
65.63 66.71 67.60 68.99 70.80 72.26 72.91 73.15 73.54 74.54 76.59 77.40 78.32 78.32 78.33 78.88 78.82 79.27 79.86 79.20 81.08 80.80 81.63 81.79 82.24 81.80 81.65 80.82 79.99 79.42 79.06 78.69 78.82
66.49 67.23 68.07 69.40 70.25 71.83 72.18 73.38 74.48 75.29 75.99 76.48 78.39 78.39 79.74 78.69 79.15 78.59 78.43 78.58 79.48 79.66 80.12 81.70 81.89 82.30 81.18 80.58 80.54 80.42 78.80 78.15 76.90
68.85 69.13 69.21 68.86 70.54 72.30 73.12 74.34 75.30 74.99 77.24 77.22 77.74 79.01 76.70 77.96 78.59 78.84 79.54 79.63 79.30 80.71 80.71 80.59 81.05 80.94 80.86 80.43 80.34 79.85 79.32 78.61 77.99
68.79 70.91 71.49 70.07 70.34 72.66 74.96 76.74 77.72 76.53 78.23 79.00 79.43 77.72 75.53 76.82 76.19 77.10 77.34 78.01 79.53 81.44 81.30 82.06 82.31 81.69 80.98 80.07 80.12 79.74 79.51 78.66 78.14
69.64 70.52 69.00 70.89 71.42 74.87 76.43 77.47 78.44 78.67 79.39 80.08 80.38 78.74 79.00 78.12 79.25 79.22 79.75 80.43 81.44 82.10 82.09 81.81 81.43 80.92 80.77 80.09 79.57 78.93 78.90 78.86 77.90
70.05 70.70 70.84 73.14 74.55 75.32 76.11 76.86 77.59 78.92 78.85 79.72 79.12 78.82 79.11 80.28 80.54 80.83 81.05 81.58 81.18 81.20 80.78 80.58 80.49 79.86 79.63 79.51 79.32 74.11 72.41 75.44 68.37
70.16 71.22 72.75 74.07 74.29 74.72 75.82 76.95 78.04 78.06 79.02 79.85 79.70 79.39 79.30 79.69 79.76 79.63 80.39 80.96 81.01 80.08 79.92 79.94 78.89 78.99 78.78 78.00 78.60 71.88 69.68 70.32 68.15
70.71 72.17 74.61 75.30 75.16 75.41 76.22 76.66 77.81 79.07 79.21 79.53 80.13 80.33 80.42 81.16 81.05 80.48 80.71 81.11 81.01 81.44 82.18 81.77 81.65 80.81 81.02 80.38 79.49 71.10 67.00 68.80 68.17
72.85 74.63 75.77 75.75 75.96 75.75 76.23 76.92 78.26 78.66 78.59 79.70 79.81 79.16 79.63 80.39 80.99 80.42 79.73 79.03 79.24 80.29 80.66 80.51 79.91 79.62 79.13 79.33 79.70 69.16 64.92 67.83 68.97
74.24 75.26 75.30 75.14 74.10 73.25 74.54 75.87 77.27 76.95 77.05 76.82 77.01 78.15 79.36 80.77 80.48 79.72 79.18 79.18 79.56 80.54 80.01 78.34 77.85 76.19 77.25 73.70 78.04 63.86 63.52 68.08 71.98
74.99 75.14 74.47 73.67 72.89 71.50 74.87 74.92 75.91 75.53 75.78 76.58 78.17 78.53 79.58 80.36 79.65 78.70 79.66 79.95 80.87 80.37 79.54 79.16 77.64 77.04 77.62 77.94 76.36 75.14 62.06 62.59 74.31
73.65 73.65 72.42 72.63 71.65 72.93 74.76 75.70 75.92 75.72 75.99 78.10 79.44 77.91 77.94 78.40 79.59 77.70 78.32 80.00 80.19 79.58 78.27 77.02 76.15 76.17 75.43 76.31 76.31 68.69 61.51 61.05 62.87
73.57 73.48 71.35 72.01 73.04 74.36 74.36 76.09 76.49 77.11 78.57 78.88 78.38 78.56 78.10 77.95 79.15 78.72 79.25 79.11 77.83 76.32 76.35 74.78 74.15 71.29 69.40 69.29 71.00 74.07 60.79 59.47 60.17
73.21 73.18 71.35 72.55 73.27 73.76 75.02 78.74 79.47 80.05 80.92 80.71 79.78 78.97 78.66 78.54 77.67 77.31 78.28 76.62 75.00 73.40 73.50 71.19 71.64 71.30 69.25 69.83 70.58 71.93 73.40 72.93 68.35
74.20 74.56 73.84 72.53 72.69 73.63 76.69 78.84 79.18 79.52 80.06 80.32 78.22 77.88 77.35 77.28 75.94 76.64 76.77 76.67 75.17 73.82 75.34 71.28 72.25 72.52 72.00 70.64 70.01 69.85 61.55 63.27 72.58
76.00 76.21 77.91 75.91 75.66 74.65 76.99 77.90 76.78 77.14 78.13 77.94 77.94 77.12 76.13 74.51 73.55 73.20 72.13 71.18 72.42 62.35 59.12 57.44 58.16 56.98 61.75 71.61 62.81 57.21 51.06 48.77 49.31
70.00 75.91 76.52 76.35 75.42 75.92 76.27 75.78 75.77 76.84 77.48 77.01 76.12 75.76 75.09 73.12 69.70 70.89 70.86 70.47 70.49 68.01 67.32 58.18 54.88 53.43 50.75 50.40 51.66 48.95 47.14 47.32 47.68

GFSFLT1_sfc_wetblb_345.txt.gz
Wetbulb
65.18 66.00 66.83 67.22 67.09 69.03 69.23 71.10 72.05 73.56 73.40 73.29 74.30 76.03 74.86 75.32 75.32 75.57 74.46 73.90 72.89 73.87 73.95 74.00 75.34 75.08 75.78 75.80 75.75 75.22 73.82 73.09 71.49
62.78 65.74 67.26 67.15 67.38 69.25 69.53 70.41 71.66 73.34 73.76 74.21 74.92 74.37 75.51 75.66 75.59 75.82 74.57 73.86 73.63 74.36 75.58 71.29 67.03 72.11 75.21 76.02 75.87 75.22 74.78 72.51 72.64
63.60 64.72 67.14 67.74 67.99 69.24 69.79 70.37 71.99 74.39 74.54 74.92 75.44 75.02 75.62 76.22 76.12 76.32 76.45 76.15 75.01 73.20 74.30 73.54 71.62 72.91 75.06 75.65 76.24 75.34 75.06 73.19 73.07
62.67 65.43 66.72 67.50 68.29 69.41 69.42 70.50 73.86 74.29 74.81 74.93 74.71 74.92 75.35 75.51 76.45 76.91 77.03 75.80 75.92 74.50 75.41 75.18 74.88 75.16 75.17 75.22 75.89 75.46 74.85 73.86 73.89
63.63 64.56 64.92 65.22 67.64 69.23 68.91 69.98 72.13 73.77 74.68 74.87 75.41 74.75 75.27 75.49 76.24 76.52 74.77 74.84 75.29 75.76 75.09 75.93 75.67 76.25 75.94 75.84 76.60 75.71 74.90 74.60 74.57
60.67 63.02 65.21 65.18 63.39 68.16 68.58 69.25 70.36 73.10 73.52 74.59 75.41 75.06 75.39 75.85 75.56 74.17 73.99 75.52 75.64 76.13 75.43 75.57 76.74 76.35 76.79 76.29 76.37 76.67 76.26 75.49 75.03
62.46 61.76 63.37 63.41 62.36 68.49 69.17 70.77 71.45 72.07 72.60 74.62 74.17 72.84 72.34 72.96 73.21 73.78 73.84 74.08 74.16 74.87 76.11 76.30 76.17 76.72 76.62 76.94 77.17 77.18 76.74 76.14 73.39
65.70 64.22 62.67 63.31 68.61 70.33 71.17 72.39 73.03 74.10 75.13 75.08 73.33 71.67 70.55 72.13 71.84 72.31 72.03 71.69 71.75 74.69 75.79 76.78 76.42 76.72 77.65 77.71 77.40 77.44 76.59 75.90 67.65
65.39 65.45 68.42 71.64 72.41 73.23 73.38 73.63 73.99 74.82 74.56 74.06 73.65 74.45 72.95 73.95 74.22 73.95 74.19 75.06 75.77 75.70 75.99 76.07 76.14 76.14 76.73 76.40 77.44 72.66 70.15 70.29 67.36
65.67 68.57 70.00 71.12 72.11 72.63 73.32 74.34 74.70 73.74 74.95 75.17 73.13 73.67 74.44 73.92 73.57 74.68 75.45 76.18 76.56 76.57 75.37 76.35 75.73 75.40 75.45 75.16 75.41 71.74 68.85 68.55 68.21
67.83 70.31 70.41 70.69 72.32 73.13 74.24 74.37 75.53 75.67 75.66 74.74 74.57 73.97 74.32 75.76 75.63 75.63 75.97 75.17 74.85 75.02 75.75 76.20 76.09 76.36 76.60 76.28 76.36 69.75 67.20 68.21 67.74
69.11 70.77 71.21 71.79 73.45 73.45 73.71 74.89 75.54 75.49 75.04 75.17 75.78 75.88 75.96 76.35 76.55 75.96 75.76 74.81 72.42 72.43 72.34 72.45 71.98 73.50 74.01 73.54 74.40 67.13 65.46 66.28 67.18
64.80 72.35 72.85 73.06 73.92 74.69 75.13 75.57 75.88 75.37 75.38 75.81 74.59 75.02 75.40 75.72 74.15 71.58 70.86 70.39 71.03 72.03 72.54 71.65 73.19 71.92 72.37 71.40 72.17 65.63 63.38 66.45 68.37
68.51 65.68 69.99 72.78 73.14 73.20 73.64 74.33 74.19 73.25 72.77 72.68 74.15 75.37 73.52 71.89 70.71 70.16 70.47 70.58 72.40 72.29 72.45 72.97 72.62 72.08 72.43 73.31 72.31 72.04 61.54 62.48 69.71
64.86 66.56 65.17 70.33 70.99 70.67 71.15 72.58 72.03 71.45 71.77 74.19 73.54 72.36 71.90 70.22 69.58 71.13 72.43 72.06 71.84 72.08 72.56 71.13 70.47 71.13 69.12 66.98 66.67 60.99 60.97 59.65 61.46
60.48 61.71 66.61 68.57 70.39 70.12 71.36 71.63 72.40 71.24 73.25 73.34 72.24 72.01 70.04 69.65 70.30 70.68 71.37 70.96 71.16 71.47 71.83 71.49 70.36 66.71 63.80 64.58 67.74 66.93 59.95 60.01 60.73
62.93 66.96 68.19 70.72 70.37 69.99 70.70 71.55 74.45 74.52 74.12 73.47 73.18 72.46 70.65 69.41 70.02 70.07 71.39 72.59 72.45 70.02 69.60 66.05 65.44 64.15 64.22 65.11 65.72 67.74 67.11 67.58 66.21
65.79 67.90 69.52 68.29 66.42 65.19 70.86 74.63 75.24 75.50 75.39 74.94 73.67 73.61 70.82 70.70 71.20 70.82 70.52 71.31 70.90 68.82 65.10 62.68 63.07 64.23 65.66 66.49 64.90 57.59 53.91 56.04 59.92
69.32 67.27 65.81 63.34 63.19 66.22 71.89 71.97 71.91 72.54 72.62 72.66 71.05 71.06 69.76 66.55 67.88 66.56 66.46 66.16 65.47 59.66 56.01 54.12 52.23 50.96 57.31 62.65 53.79 48.86 46.94 46.41 47.50
68.24 69.26 68.41 63.92 62.86 70.36 71.24 69.77 70.79 72.16 71.72 71.14 69.41 68.28 67.82 66.92 65.43 65.48 64.81 64.01 63.31 62.51 62.20 54.35 54.27 50.93 50.53 49.66 48.84 46.58 45.33 45.87 46.78

GFSFLT1_sfc_wetblb_348.txt.gz
Wetbulb
64.48 65.43 65.78 66.67 67.47 67.69 69.16 70.09 70.57 70.84 70.75 71.86 71.94 72.20 72.28 73.42 73.86 73.97 72.83 72.33 71.68 71.94 73.15 71.62 71.82 74.34 74.49 73.46 73.92 73.52 72.04 70.38 69.68
63.61 64.81 65.94 66.06 66.86 68.39 68.74 70.43 70.66 71.51 70.97 71.49 72.88 73.28 72.47 73.33 73.45 74.13 73.67 73.54 72.03 72.99 73.41 73.87 73.70 74.30 74.11 74.64 74.24 74.13 72.48 71.81 71.18
60.21 62.27 64.63 66.52 66.25 68.08 68.89 71.04 71.62 72.24 72.28 71.65 73.12 74.11 73.97 74.00 74.03 74.44 74.24 73.78 72.77 72.70 73.78 70.80 70.07 69.96 72.62 73.55 74.82 74.36 73.62 72.31 71.42
61.86 64.62 64.78 66.54 66.83 68.19 69.10 70.67 71.42 72.29 72.39 72.28 73.02 72.92 74.53 74.87 74.67 75.38 75.38 74.98 74.83 73.28 73.33 72.55 71.60 69.03 71.65 73.22 74.48 74.28 73.34 72.71 72.41
62.94 66.48 64.73 67.43 67.52 67.63 68.89 69.29 71.64 72.08 72.45 72.99 74.03 74.09 74.53 74.81 75.46 75.45 75.39 74.75 75.01 75.06 73.77 74.03 73.62 73.59 73.93 74.16 73.91 74.45 73.52 73.18 73.64
62.41 65.09 63.18 64.87 66.62 66.48 67.21 69.21 71.55 71.59 72.06 73.47 74.25 74.36 74.69 74.58 74.74 74.81 74.00 74.05 74.13 74.44 74.21 73.57 74.25 74.23 74.51 74.21 74.51 74.46 74.15 71.69 69.35
63.33 64.50 63.33 64.17 64.37 62.21 65.49 69.04 72.05 68.79 69.26 73.83 74.34 74.43 74.42 74.19 74.18 74.06 72.30 71.49 74.05 74.19 74.21 74.20 73.60 74.22 74.77 74.64 74.39 74.70 72.30 67.55 66.88
62.73 62.90 62.17 59.42 60.15 61.26 64.97 66.93 71.00 71.39 72.62 73.49 73.73 72.67 73.26 73.89 73.40 73.53 73.12 72.39 72.53 72.28 71.98 74.71 74.85 75.21 75.41 75.68 74.94 75.13 67.51 66.74 65.72
61.68 61.54 61.10 60.80 61.46 64.51 67.60 68.96 70.20 71.89 72.57 71.31 71.64 69.87 69.87 70.86 70.70 70.57 69.99 69.91 69.76 72.49 74.77 75.03 74.83 73.94 73.84 73.16 75.05 68.16 67.86 67.24 66.90
61.30 62.03 62.36 62.18 63.52 68.79 69.64 70.91 72.73 72.43 72.33 72.03 71.98 71.39 71.90 71.03 70.34 70.36 72.10 73.48 73.77 73.66 73.88 73.90 74.26 73.96 73.21 72.95 73.35 67.33 67.83 68.56 66.38
66.46 67.64 67.70 67.76 70.47 71.23 72.24 72.94 72.96 73.10 72.62 72.40 72.32 71.68 71.40 71.43 72.46 73.03 73.70 74.41 74.24 72.94 73.13 72.91 72.13 73.49 73.66 73.00 73.65 66.41 66.57 68.18 67.39
65.19 65.88 66.31 70.22 72.64 73.04 72.95 72.97 74.03 73.63 72.38 71.76 71.22 71.42 71.97 73.39 73.42 73.41 73.60 72.92 73.00 71.24 70.34 69.80 69.58 71.26 70.12 69.34 70.02 65.90 65.07 66.02 67.34
68.50 68.51 68.61 67.22 72.41 73.14 73.71 73.79 74.27 73.04 72.46 72.28 72.00 73.20 73.78 74.69 74.70 74.09 71.98 69.37 69.26 70.20 70.33 70.18 70.98 71.33 70.92 68.71 69.65 66.10 62.29 64.35 67.43
69.18 68.49 68.53 68.10 69.60 73.18 73.94 74.39 73.79 72.63 73.19 73.18 74.18 74.55 73.20 71.76 70.53 69.01 68.67 69.17 70.10 70.10 69.94 70.38 69.81 69.88 70.27 66.96 66.41 65.20 59.93 60.11 67.05
66.26 66.74 67.67 67.94 65.83 71.43 72.82 73.60 73.60 72.63 72.90 73.08 73.24 70.35 69.15 67.62 67.91 69.98 70.26 70.31 70.30 69.55 69.20 69.15 69.16 69.76 64.53 64.22 66.16 59.89 59.19 58.32 61.04
62.77 64.02 64.97 67.23 65.24 68.13 70.89 71.29 72.22 72.11 71.82 72.20 70.00 68.72 67.43 66.97 69.41 70.41 69.99 68.77 68.32 68.99 69.20 68.56 65.97 64.21 62.53 63.40 67.05 64.61 60.84 59.59 60.13
61.63 63.14 65.95 67.59 64.40 67.88 69.14 70.25 70.85 71.28 72.84 70.72 69.83 67.80 67.71 68.11 68.16 67.45 68.37 70.24 70.69 68.61 65.00 62.76 61.84 62.52 63.83 62.93 59.27 58.35 58.32 59.66 59.75
62.24 62.93 64.18 65.19 66.16 69.13 68.84 71.05 72.52 73.01 71.90 71.70 70.02 68.93 68.66 68.40 68.86 68.81 67.54 67.93 66.33 63.85 60.50 60.10 62.06 61.24 60.31 57.05 56.01 55.85 52.13 52.04 54.96
64.03 64.80 66.50 66.60 67.75 71.59 71.31 70.92 70.05 70.81 72.61 72.71 71.47 68.95 68.51 66.45 66.03 65.16 64.54 63.43 62.54 53.55 53.50 52.13 50.96 51.15 55.49 54.72 51.05 47.59 46.16 45.27 45.63
64.74 65.33 65.19 68.39 70.09 68.31 69.69 69.36 70.23 70.68 70.61 69.78 68.36 67.44 66.25 64.57 63.24 62.87 62.03 61.61 60.06 57.54 53.68 50.10 49.29 48.46 48.12 46.28 45.43 46.17 45.63 44.91 46.17